Location: Warszawa
(52.2322°N, 21.0083°E)
Time: 10:47:23
(UTC+02:00)

ISS - Pass Details

Date: 29 March 2019
Orbit: 408 x 410 km, 51.6° (Epoch: 25 April)

Event Time Altitude Azimuth Distance (km) Brightness Sun altitude
Rises 20:05:23 0° 275° (W) 2,338 1.1 -18.2°
Reaches altitude 10° 20:07:29 10° 273° (W) 1,476 -0.1 -18.5°
Maximum altitude 20:10:47 77° 187° (S) 425 -3.9 -18.9°
Enters shadow 20:10:55 75° 158° (SSE) 429 -4.0 -18.9°
